Location: La Pernelle
(49.6188°N, 1.2999°W)
Time: 08:21:41
(UTC+00:00)

Cosmos 1626 - Pass Details

Date: 12 June 2021
Orbit: 489 x 493 km, 82.5° (Epoch: 01 August)

Event Time Altitude Azimuth Distance (km) Brightness Sun altitude
Exits shadow 21:24:26 11° 124° (SE) 1,631 4.1 -8.9°
Maximum altitude 21:26:36 16° 86° (E) 1,336 4.0 -9.1°
Drops below altitude 10° 21:28:58 10° 46° (NE) 1,696 4.9 -9.3°
Sets 21:31:40 0° 25° (NNE) 2,586 6.2 -9.6°
